Regional Weather Roundup
Issued by NWS

Home | Current Version | Previous Version | Graphics & Text | Print | Product List | Glossary Off
Versions: 1 2 3 4 5 6 7 8 9 10 11 12 13 14 15 16 17 18 19 20 21 22 23 24 25 26 27 28 29 30 31 32 33 34 35 36 37 38 39 40 41 42 43 44 45 46 47 48 49 50

412
ASUS43 KLSX 251210
RWRMO

WEATHER SUMMARY FOR MISSOURI
NATIONAL WEATHER SERVICE SPRINGFIELD MO
600 AM CST SAT FEB 25 2017

NOTE: "FAIR" INDICATES FEW OR NO CLOUDS BELOW 12,000 FEET WITH NO
       SIGNIFICANT WEATHER AND/OR OBSTRUCTIONS TO VISIBILITY.
       CURRENT SKY AND/OR WEATHER CONDITIONS ARE NOT AVAILABLE FOR
       CHILLICOTHE AND FARMINGTON.

MOZ001>031-035>038-043-044-053-054-251300-
...NORTHERN AND WESTERN MISSOURI...

CITY           SKY/WX    TMP DP  RH WIND       PRES   REMARKS
KANSAS CTY INT CLEAR     20  14  77 NW6       30.11R WCI  12
6HR MIN TEMP:  20; 6HR MAX TEMP:  26;

KANSAS C DTWN  CLEAR     25  14  63 N8        30.12R WCI  16
6HR MIN TEMP:  25; 6HR MAX TEMP:  28;

LEE`S SUMMIT   PTCLDY    24  16  71 NW8       30.10R WCI  15
6HR MIN TEMP:  24; 6HR MAX TEMP:  27;

ST JOSEPH      CLEAR     20  15  81 NW9       30.13R WCI   9
6HR MIN TEMP:  19; 6HR MAX TEMP:  27;

CHILLICOTHE      N/A     21  13  71 W7        30.09R WCI  12
6HR MIN TEMP:  21; 6HR MAX TEMP:  26;

KIRKSVILLE     CLEAR     19  14  81 W10       30.01R WCI   7
6HR MIN TEMP:  19; 6HR MAX TEMP:  25;


$$
MOZ066>068-077>081-088>096-101>105-251300-
...SOUTHWEST MISSOURI...

CITY           SKY/WX    TMP DP  RH WIND       PRES   REMARKS
SPRINGFIELD    PTCLDY    22  16  78 W9        30.09R WCI  12
6HR MIN TEMP:  22; 6HR MAX TEMP:  30;

JOPLIN         CLEAR     21  17  84 NW6       30.15R WCI  13
6HR MIN TEMP:  21; 6HR MAX TEMP:  30;

BRANSON        CLEAR     25  16  68 NW8       30.10R WCI  16

$$
MOZ032>034-039>042-045>050-055>058-069>072-251300-
...CENTRAL MISSOURI...

CITY           SKY/WX    TMP DP  RH WIND       PRES   REMARKS
COLUMBIA       MOCLDY    26  17  68 NW16      30.04R WCI  14
6HR MIN TEMP:  26; 6HR MAX TEMP:  29; 6HR PCP: TRACE;

JEFFERSON CITY CLOUDY    27  16  63 W21       30.06R WCI  13
6HR MIN TEMP:  27; 6HR MAX TEMP:  30;

ROLLA          CLOUDY    25  15  66 NW15G29   30.01R WCI  13
6HR MIN TEMP:  25; 6HR MAX TEMP:  29;

SEDALIA        CLEAR     24  15  68 NW13      30.09R WCI  12
6HR MIN TEMP:  24; 6HR MAX TEMP:  28;

WHITEMAN AFB   CLEAR     23  15  70 N7        30.08R WCI  15
WARRENSBURG    PTCLDY    25  18  74 NW8       30.10S WCI  16
OSAGE BEACH    CLOUDY    26  16  65 NW9       30.08S WCI  17

$$
MOZ051-052-059>065-251300-
...EAST CENTRAL MISSOURI...

CITY           SKY/WX    TMP DP  RH WIND       PRES   REMARKS
ST LOUIS INTL  FLURRIES  30  17  58 NW17G31   29.97R WCI  18
6HR MIN TEMP:  30; 6HR MAX TEMP:  35; 6HR PCP: TRACE;

SPIRIT OF STL  CLOUDY    29  17  61 W17G32    29.99R WCI  17
6HR MIN TEMP:  29; 6HR MAX TEMP:  34; 6HR PCP: TRACE;

ST CHARLES     CLOUDY    29  15  56 NW24G32   29.97R WCI  15
6HR MIN TEMP:  29; 6HR MAX TEMP:  33;


$$
MOZ072>076-082>087-097>100-106>115-251300-
...SOUTH CENTRAL AND SOUTHEAST MISSOURI...

CITY           SKY/WX    TMP DP  RH WIND       PRES   REMARKS
CAPE GIRARDEAU MOCLDY    31  17  56 NW16G24   30.00R WCI  20
6HR MIN TEMP:  29; 6HR MAX TEMP:  43;

FARMINGTON     CLOUDY    28  17  63 NW18G25   29.98R WCI  15
6HR MIN TEMP:  28; 6HR MAX TEMP:  34;

POPLAR BLUFF   CLEAR     32  19  58 W14G23    30.02R WCI  22
6HR MIN TEMP:  32; 6HR MAX TEMP:  43;

WEST PLAINS    PTCLDY    26  16  65 NW13G23   30.04R WCI  15
6HR MIN TEMP:  26; 6HR MAX TEMP:  34;


$$




USA.gov is the U.S. government's official web portal to all federal, state and local government web resources and services.